TimeCDT,TemperatureF,Dew PointF,Humidity,Sea Level PressureIn,VisibilityMPH,Wind Direction,Wind SpeedMPH,Gust SpeedMPH,PrecipitationIn,Events,Conditions,WindDirDegrees,DateUTC
12:54 AM,30.9,28.0,89,30.22,10.0,West,6.9,-,N/A,,Clear,280,2013-10-19 05:54:00
1:54 AM,30.9,27.0,85,30.19,10.0,WNW,6.9,-,N/A,,Clear,290,2013-10-19 06:54:00
2:54 AM,30.0,27.0,88,30.19,10.0,West,8.1,-,N/A,,Clear,260,2013-10-19 07:54:00
3:54 AM,30.9,27.0,85,30.17,10.0,West,9.2,-,N/A,,Clear,280,2013-10-19 08:54:00
4:54 AM,30.9,27.0,85,30.15,10.0,West,8.1,-,N/A,,Clear,260,2013-10-19 09:54:00
5:54 AM,30.0,26.1,85,30.14,10.0,West,6.9,-,N/A,,Clear,270,2013-10-19 10:54:00
6:54 AM,30.0,27.0,88,30.15,10.0,West,8.1,-,N/A,,Clear,260,2013-10-19 11:54:00
7:54 AM,28.9,26.1,89,30.14,10.0,SW,6.9,-,N/A,,Clear,220,2013-10-19 12:54:00
8:54 AM,30.9,28.0,89,30.13,10.0,SW,8.1,-,N/A,,Clear,230,2013-10-19 13:54:00
9:54 AM,39.9,32.0,73,30.12,10.0,West,13.8,-,N/A,,Clear,270,2013-10-19 14:54:00
10:54 AM,46.0,35.1,66,30.10,10.0,West,12.7,-,N/A,,Clear,270,2013-10-19 15:54:00
11:54 AM,53.1,35.1,50,30.08,10.0,West,15.0,-,N/A,,Clear,270,2013-10-19 16:54:00
12:54 PM,59.0,35.1,41,30.07,10.0,West,11.5,-,N/A,,Clear,280,2013-10-19 17:54:00
1:54 PM,61.0,32.0,34,30.04,10.0,West,9.2,-,N/A,,Clear,260,2013-10-19 18:54:00
2:54 PM,64.0,28.0,26,30.01,10.0,West,13.8,-,N/A,,Clear,260,2013-10-19 19:54:00
3:54 PM,64.0,27.0,25,29.99,10.0,West,9.2,17.3,N/A,,Clear,270,2013-10-19 20:54:00
4:54 PM,64.9,26.1,23,29.97,10.0,West,8.1,-,N/A,,Clear,270,2013-10-19 21:54:00
5:54 PM,64.0,27.0,25,29.96,10.0,West,8.1,-,N/A,,Clear,270,2013-10-19 22:54:00
6:54 PM,59.0,32.0,36,29.95,10.0,West,4.6,-,N/A,,Clear,260,2013-10-19 23:54:00
7:54 PM,57.9,30.9,36,29.96,10.0,South,4.6,-,N/A,,Clear,190,2013-10-20 00:54:00
8:54 PM,52.0,32.0,47,29.96,10.0,South,4.6,-,N/A,,Clear,190,2013-10-20 01:54:00
9:54 PM,50.0,30.9,48,29.95,10.0,South,6.9,-,N/A,,Clear,180,2013-10-20 02:54:00
10:54 PM,46.9,30.9,54,29.94,10.0,SSW,9.2,-,N/A,,Clear,200,2013-10-20 03:54:00
11:54 PM,45.0,32.0,60,29.92,10.0,SSW,9.2,-,N/A,,Clear,210,2013-10-20 04:54:00